SVA902 LTFJ-LTBJ

Flight info

Callsign SVA902
Flight time N/A
Altitude 29000
Route IVGUS1W/06R IVGUS UM19 OVZOK
Aircraft A320/M-SDE3FGHIRWY/LB1

Departure

Time 2026-05-06 19:26
Airport Istanbul Sabiha Gökçen International Airport (LTFJ)

Arrival

Time N/A
Airport Adnan Menderes International Airport (LTBJ)
Time Latitude Longitude Altitude Speed Heading
2026-05-06 18:59 40.90542 29.31454 311 ft 0 kts 334°
2026-05-06 19:14 40.90540 29.31455 303 ft 2 kts 334°
2026-05-06 19:14 40.90518 29.31473 310 ft 4 kts 318°
2026-05-06 19:14 40.90501 29.31500 310 ft 4 kts 295°
2026-05-06 19:14 40.90493 29.31533 309 ft 4 kts 269°
2026-05-06 19:15 40.90498 29.31566 309 ft 2 kts 244°
2026-05-06 19:15 40.90499 29.31569 309 ft 0 kts 244°
2026-05-06 19:17 40.90493 29.31554 309 ft 4 kts 243°
2026-05-06 19:17 40.90482 29.31526 309 ft 3 kts 243°
2026-05-06 19:17 40.90474 29.31505 308 ft 2 kts 243°
2026-05-06 19:17 40.90464 29.31479 310 ft 7 kts 243°
2026-05-06 19:18 40.90405 29.31441 311 ft 14 kts 165°
2026-05-06 19:18 40.90311 29.31494 311 ft 15 kts 171°
2026-05-06 19:18 40.90243 29.31405 311 ft 16 kts 245°
2026-05-06 19:18 40.90195 29.31271 311 ft 17 kts 244°
2026-05-06 19:19 40.90143 29.31128 311 ft 18 kts 243°
2026-05-06 19:19 40.90078 29.30999 311 ft 16 kts 212°
2026-05-06 19:19 40.89970 29.31026 311 ft 17 kts 156°
2026-05-06 19:19 40.89919 29.31048 311 ft 5 kts 165°
2026-05-06 19:20 40.89872 29.31067 311 ft 9 kts 157°
2026-05-06 19:20 40.89800 29.31115 311 ft 13 kts 153°
2026-05-06 19:20 40.89776 29.31206 311 ft 11 kts 74°
2026-05-06 19:20 40.89745 29.31293 311 ft 14 kts 152°
2026-05-06 19:21 40.89665 29.31346 311 ft 12 kts 154°
2026-05-06 19:21 40.89582 29.31398 309 ft 15 kts 154°
2026-05-06 19:21 40.89474 29.31468 305 ft 19 kts 153°
2026-05-06 19:21 40.89346 29.31551 301 ft 17 kts 154°
2026-05-06 19:22 40.89267 29.31522 301 ft 14 kts 240°
2026-05-06 19:22 40.89203 29.31431 300 ft 15 kts 185°
2026-05-06 19:22 40.89113 29.31396 301 ft 15 kts 237°
2026-05-06 19:22 40.89060 29.31252 302 ft 20 kts 244°
2026-05-06 19:23 40.88995 29.31076 298 ft 23 kts 244°
2026-05-06 19:23 40.88923 29.30873 294 ft 26 kts 245°
2026-05-06 19:23 40.88837 29.30643 287 ft 29 kts 244°
2026-05-06 19:23 40.88746 29.30398 281 ft 24 kts 243°
2026-05-06 19:24 40.88693 29.30258 279 ft 15 kts 245°
2026-05-06 19:24 40.88618 29.30194 279 ft 13 kts 160°
2026-05-06 19:24 40.88542 29.30245 278 ft 11 kts 153°
2026-05-06 19:24 40.88508 29.30316 279 ft 8 kts 86°
2026-05-06 19:25 40.88534 29.30391 282 ft 19 kts 64°
2026-05-06 19:25 40.88686 29.30802 295 ft 85 kts 64°
2026-05-06 19:25 40.89039 29.31761 302 ft 144 kts 64°
2026-05-06 19:25 40.89544 29.33143 388 ft 180 kts 66°
2026-05-06 19:26 40.90014 29.34636 1104 ft 176 kts 72°
2026-05-06 19:26 40.90056 29.36251 1821 ft 184 kts 103°
2026-05-06 19:26 40.89826 29.38005 2272 ft 205 kts 96°
2026-05-06 19:26 40.89662 29.39982 2631 ft 229 kts 96°
2026-05-06 19:27 40.89491 29.42185 3017 ft 250 kts 95°
2026-05-06 19:27 40.89037 29.44437 3675 ft 260 kts 118°
2026-05-06 19:27 40.87873 29.46286 4348 ft 270 kts 143°
2026-05-06 19:27 40.86170 29.47386 5073 ft 276 kts 165°
2026-05-06 19:28 40.84265 29.47677 5892 ft 278 kts 185°
2026-05-06 19:28 40.82377 29.47102 6669 ft 281 kts 205°
2026-05-06 19:28 40.80751 29.45687 7421 ft 281 kts 224°
2026-05-06 19:28 40.79298 29.43920 7873 ft 286 kts 225°
2026-05-06 19:29 40.77835 29.42140 8224 ft 288 kts 225°
2026-05-06 19:29 40.76364 29.40351 9087 ft 288 kts 225°
2026-05-06 19:29 40.74896 29.38568 9859 ft 293 kts 225°
2026-05-06 19:29 40.73355 29.36693 10342 ft 307 kts 227°
2026-05-06 19:30 40.71983 29.34436 10517 ft 326 kts 243°
2026-05-06 19:30 40.71090 29.31653 10655 ft 344 kts 258°
2026-05-06 19:30 40.70836 29.28493 11055 ft 350 kts 275°
2026-05-06 19:30 40.71267 29.25340 11665 ft 351 kts 289°
2026-05-06 19:31 40.72012 29.22250 12298 ft 355 kts 290°
2026-05-06 19:31 40.72747 29.19127 12952 ft 360 kts 287°
2026-05-06 19:31 40.72338 29.12498 14176 ft 381 kts 248°
2026-05-06 19:32 40.70859 29.09561 14744 ft 389 kts 234°
2026-05-06 19:32 40.69264 29.06683 15320 ft 391 kts 237°
2026-05-06 19:32 40.67477 29.03950 15886 ft 396 kts 229°
2026-05-06 19:32 40.65522 29.01363 16460 ft 400 kts 226°
2026-05-06 19:33 40.63490 28.98834 17026 ft 404 kts 225°
2026-05-06 19:33 40.61420 28.96310 17598 ft 407 kts 225°
2026-05-06 19:33 40.59502 28.93961 18086 ft 411 kts 226°
2026-05-06 19:33 40.57418 28.91371 18613 ft 414 kts 226°
2026-05-06 19:34 40.55330 28.88737 19109 ft 417 kts 227°
2026-05-06 19:34 40.53241 28.86076 19623 ft 419 kts 227°
2026-05-06 19:34 40.51144 28.83395 20123 ft 421 kts 227°
2026-05-06 19:34 40.49041 28.80706 20605 ft 424 kts 227°
2026-05-06 19:35 40.47638 28.78911 20918 ft 425 kts 227°
2026-05-06 19:35 40.44794 28.75279 21526 ft 428 kts 227°
2026-05-06 19:35 40.42655 28.72555 21957 ft 430 kts 227°
2026-05-06 19:35 40.40501 28.69811 22401 ft 432 kts 227°
2026-05-06 19:36 40.38336 28.67056 22832 ft 435 kts 227°
2026-05-06 19:36 40.36157 28.64286 23221 ft 437 kts 228°
2026-05-06 19:36 40.33964 28.61507 23608 ft 440 kts 228°
2026-05-06 19:36 40.31752 28.58712 23938 ft 442 kts 228°
2026-05-06 19:37 40.29526 28.55905 24242 ft 445 kts 228°
2026-05-06 19:37 40.27286 28.53088 24565 ft 447 kts 228°